Simultaneous Nadir Overpasses (SNOs) Predictions

Prediction of SNOs between NOAA-20 and AQUA Satellite Orbit:

Table of predicted SNOs for the next 14.0 days since TLE Epoch: 10/2/2020
Index Date (NOAA-20) Time (NOAA-20) Lat,Lon (NOAA-20) SZA (NOAA-20 ) Date (AQUA) Time (AQUA) Lat,Lon (AQUA) SZA (AQUA ) Distance(km) Time Diff (sec)
1 10/03/2020 14:29:23 -75.83, 21.00 78.99 10/03/2020 14:30:01 -75.83, 20.97 79.01 1.20 38
2 10/03/2020 15:19:48 76.70,-168.61 100.01 10/03/2020 15:19:08 76.70,-168.58 100.04 0.88 40
3 10/06/2020 06:46:16 -76.02, 137.40 78.25 10/06/2020 06:46:25 -76.03, 137.46 78.27 1.77 9
4 10/06/2020 07:36:34 77.18, -50.87 100.38 10/06/2020 07:35:26 77.17, -50.96 100.46 2.39 68
5 10/08/2020 22:12:41 75.32, 83.62 103.50 10/08/2020 22:13:38 75.33, 83.67 103.43 1.59 57
6 10/08/2020 23:02:59 -76.62,-104.71 77.99 10/08/2020 23:02:40 -76.61,-104.77 77.96 1.73 19
7 10/11/2020 14:29:23 76.02,-158.38 103.65 10/11/2020 14:29:52 76.02,-158.45 103.64 2.03 29
8 10/11/2020 15:19:52 -76.79, 11.75 77.26 10/11/2020 15:19:04 -76.79, 11.76 77.21 0.16 48
9 10/14/2020 05:58:29 -67.22, 132.83 66.36 10/14/2020 05:59:43 -67.05, 133.73 66.62 43.32 74
10 10/14/2020 06:46:15 76.25, -41.83 104.32 10/14/2020 06:46:15 76.25, -41.84 104.33 0.28 0
